<?xml version="1.0" encoding="UTF-8" standalone="no" ?>
<gpx xmlns="http://www.topografix.com/GPX/1/1" xmlns:xsi="http://www.w3.org/2001/XMLSchema-instance" xsi:schemaLocation="http://www.topografix.com/GPX/1/1 http://www.topografix.com/GPX/1/1/gpx.xsd" version="1.1" creator="VisuGPX - https://www.visugpx.com">
  <metadata>
    <name>VTT 13 mars 2019</name>
    <desc><![CDATA[VTT 13 mars 2019 vers mont Aurelien]]></desc>
  </metadata>
  <trk>
    <name><![CDATA[Tracé actuel: 10 MARS 2019 12:01]]></name>
    <trkseg>
      <trkpt lat="43.43973" lon="5.86036">
        <ele>339.96</ele>
        <time>2019-03-10T11:01:57Z</time>
      </trkpt>
      <trkpt lat="43.43973" lon="5.86036">
        <ele>339.96</ele>
        <time>2019-03-10T11:01:58Z</time>
      </trkpt>
      <trkpt lat="43.43973" lon="5.86036">
        <ele>345.25</ele>
        <time>2019-03-10T11:02:02Z</time>
      </trkpt>
      <trkpt lat="43.43973" lon="5.86036">
        <ele>345.25</ele>
        <time>2019-03-10T11:02:03Z</time>
      </trkpt>
      <trkpt lat="43.4397" lon="5.86034">
        <ele>344.29</ele>
        <time>2019-03-10T11:02:26Z</time>
      </trkpt>
      <trkpt lat="43.43967" lon="5.86033">
        <ele>345.73</ele>
        <time>2019-03-10T11:02:30Z</time>
      </trkpt>
      <trkpt lat="43.43965" lon="5.86021">
        <ele>346.69</ele>
        <time>2019-03-10T11:02:41Z</time>
      </trkpt>
      <trkpt lat="43.43962" lon="5.86024">
        <ele>345.25</ele>
        <time>2019-03-10T11:03:08Z</time>
      </trkpt>
      <trkpt lat="43.43964" lon="5.86025">
        <ele>346.69</ele>
        <time>2019-03-10T11:03:43Z</time>
      </trkpt>
      <trkpt lat="43.43963" lon="5.86024">
        <ele>347.17</ele>
        <time>2019-03-10T11:04:12Z</time>
      </trkpt>
      <trkpt lat="43.43961" lon="5.86021">
        <ele>346.21</ele>
        <time>2019-03-10T11:04:40Z</time>
      </trkpt>
      <trkpt lat="43.43961" lon="5.86021">
        <ele>346.21</ele>
        <time>2019-03-10T11:05:06Z</time>
      </trkpt>
      <trkpt lat="43.43961" lon="5.86021">
        <ele>346.21</ele>
        <time>2019-03-10T11:05:38Z</time>
      </trkpt>
      <trkpt lat="43.43961" lon="5.86022">
        <ele>346.21</ele>
        <time>2019-03-10T11:06:06Z</time>
      </trkpt>
      <trkpt lat="43.4396" lon="5.86022">
        <ele>346.69</ele>
        <time>2019-03-10T11:06:30Z</time>
      </trkpt>
      <trkpt lat="43.43962" lon="5.86024">
        <ele>347.65</ele>
        <time>2019-03-10T11:07:05Z</time>
      </trkpt>
      <trkpt lat="43.43962" lon="5.86024">
        <ele>347.65</ele>
        <time>2019-03-10T11:07:06Z</time>
      </trkpt>
      <trkpt lat="43.43962" lon="5.86026">
        <ele>347.65</ele>
        <time>2019-03-10T11:07:39Z</time>
      </trkpt>
      <trkpt lat="43.43964" lon="5.86022">
        <ele>348.13</ele>
        <time>2019-03-10T11:08:20Z</time>
      </trkpt>
      <trkpt lat="43.43961" lon="5.86022">
        <ele>348.13</ele>
        <time>2019-03-10T11:08:58Z</time>
      </trkpt>
      <trkpt lat="43.4396" lon="5.86022">
        <ele>348.13</ele>
        <time>2019-03-10T11:09:35Z</time>
      </trkpt>
      <trkpt lat="43.4396" lon="5.86021">
        <ele>347.17</ele>
        <time>2019-03-10T11:09:58Z</time>
      </trkpt>
      <trkpt lat="43.43961" lon="5.8602">
        <ele>346.69</ele>
        <time>2019-03-10T11:10:33Z</time>
      </trkpt>
      <trkpt lat="43.43961" lon="5.86019">
        <ele>348.13</ele>
        <time>2019-03-10T11:11:11Z</time>
      </trkpt>
      <trkpt lat="43.43962" lon="5.86017">
        <ele>348.13</ele>
        <time>2019-03-10T11:11:46Z</time>
      </trkpt>
      <trkpt lat="43.4396" lon="5.86018">
        <ele>348.13</ele>
        <time>2019-03-10T11:12:27Z</time>
      </trkpt>
      <trkpt lat="43.43961" lon="5.8602">
        <ele>348.62</ele>
        <time>2019-03-10T11:12:55Z</time>
      </trkpt>
      <trkpt lat="43.43959" lon="5.86019">
        <ele>348.62</ele>
        <time>2019-03-10T11:13:27Z</time>
      </trkpt>
      <trkpt lat="43.43959" lon="5.8602">
        <ele>348.62</ele>
        <time>2019-03-10T11:13:56Z</time>
      </trkpt>
      <trkpt lat="43.43961" lon="5.86017">
        <ele>348.62</ele>
        <time>2019-03-10T11:14:30Z</time>
      </trkpt>
      <trkpt lat="43.4396" lon="5.86017">
        <ele>349.1</ele>
        <time>2019-03-10T11:15:06Z</time>
      </trkpt>
      <trkpt lat="43.4396" lon="5.86018">
        <ele>349.1</ele>
        <time>2019-03-10T11:15:36Z</time>
      </trkpt>
      <trkpt lat="43.4396" lon="5.86018">
        <ele>349.58</ele>
        <time>2019-03-10T11:16:10Z</time>
      </trkpt>
      <trkpt lat="43.43957" lon="5.86015">
        <ele>349.58</ele>
        <time>2019-03-10T11:16:45Z</time>
      </trkpt>
      <trkpt lat="43.43954" lon="5.86016">
        <ele>348.62</ele>
        <time>2019-03-10T11:17:19Z</time>
      </trkpt>
      <trkpt lat="43.43957" lon="5.86016">
        <ele>348.62</ele>
        <time>2019-03-10T11:17:49Z</time>
      </trkpt>
      <trkpt lat="43.4396" lon="5.86016">
        <ele>350.06</ele>
        <time>2019-03-10T11:18:06Z</time>
      </trkpt>
      <trkpt lat="43.43964" lon="5.8602">
        <ele>350.54</ele>
        <time>2019-03-10T11:18:43Z</time>
      </trkpt>
      <trkpt lat="43.43963" lon="5.86021">
        <ele>350.54</ele>
        <time>2019-03-10T11:19:13Z</time>
      </trkpt>
      <trkpt lat="43.43964" lon="5.86023">
        <ele>351.02</ele>
        <time>2019-03-10T11:19:45Z</time>
      </trkpt>
      <trkpt lat="43.43961" lon="5.86021">
        <ele>351.02</ele>
        <time>2019-03-10T11:20:16Z</time>
      </trkpt>
      <trkpt lat="43.43962" lon="5.86022">
        <ele>350.06</ele>
        <time>2019-03-10T11:20:52Z</time>
      </trkpt>
      <trkpt lat="43.43964" lon="5.86024">
        <ele>350.06</ele>
        <time>2019-03-10T11:21:22Z</time>
      </trkpt>
      <trkpt lat="43.43965" lon="5.86025">
        <ele>351.02</ele>
        <time>2019-03-10T11:21:56Z</time>
      </trkpt>
      <trkpt lat="43.43962" lon="5.86025">
        <ele>351.5</ele>
        <time>2019-03-10T11:22:24Z</time>
      </trkpt>
      <trkpt lat="43.43962" lon="5.86024">
        <ele>351.5</ele>
        <time>2019-03-10T11:22:59Z</time>
      </trkpt>
      <trkpt lat="43.43961" lon="5.86023">
        <ele>351.5</ele>
        <time>2019-03-10T11:23:30Z</time>
      </trkpt>
      <trkpt lat="43.4396" lon="5.86024">
        <ele>351.5</ele>
        <time>2019-03-10T11:24:05Z</time>
      </trkpt>
      <trkpt lat="43.43962" lon="5.86025">
        <ele>350.54</ele>
        <time>2019-03-10T11:24:34Z</time>
      </trkpt>
      <trkpt lat="43.4396" lon="5.86025">
        <ele>350.54</ele>
        <time>2019-03-10T11:25:06Z</time>
      </trkpt>
      <trkpt lat="43.43961" lon="5.86025">
        <ele>350.54</ele>
        <time>2019-03-10T11:25:41Z</time>
      </trkpt>
      <trkpt lat="43.43961" lon="5.86025">
        <ele>351.5</ele>
        <time>2019-03-10T11:25:47Z</time>
      </trkpt>
      <trkpt lat="43.43961" lon="5.86023">
        <ele>350.54</ele>
        <time>2019-03-10T11:26:19Z</time>
      </trkpt>
      <trkpt lat="43.43961" lon="5.8602">
        <ele>350.54</ele>
        <time>2019-03-10T11:26:57Z</time>
      </trkpt>
      <trkpt lat="43.43959" lon="5.86019">
        <ele>351.5</ele>
        <time>2019-03-10T11:27:31Z</time>
      </trkpt>
      <trkpt lat="43.43959" lon="5.8602">
        <ele>351.5</ele>
        <time>2019-03-10T11:28:02Z</time>
      </trkpt>
      <trkpt lat="43.43961" lon="5.86019">
        <ele>350.54</ele>
        <time>2019-03-10T11:28:35Z</time>
      </trkpt>
      <trkpt lat="43.43961" lon="5.8602">
        <ele>351.5</ele>
        <time>2019-03-10T11:28:41Z</time>
      </trkpt>
      <trkpt lat="43.43963" lon="5.86023">
        <ele>352.46</ele>
        <time>2019-03-10T11:29:14Z</time>
      </trkpt>
      <trkpt lat="43.43962" lon="5.86022">
        <ele>351.5</ele>
        <time>2019-03-10T11:29:43Z</time>
      </trkpt>
      <trkpt lat="43.43962" lon="5.86023">
        <ele>351.5</ele>
        <time>2019-03-10T11:30:13Z</time>
      </trkpt>
      <trkpt lat="43.43963" lon="5.86022">
        <ele>351.5</ele>
        <time>2019-03-10T11:30:49Z</time>
      </trkpt>
      <trkpt lat="43.43963" lon="5.86024">
        <ele>351.02</ele>
        <time>2019-03-10T11:31:27Z</time>
      </trkpt>
      <trkpt lat="43.43963" lon="5.86024">
        <ele>351.98</ele>
        <time>2019-03-10T11:31:54Z</time>
      </trkpt>
      <trkpt lat="43.43964" lon="5.86024">
        <ele>351.98</ele>
        <time>2019-03-10T11:32:20Z</time>
      </trkpt>
      <trkpt lat="43.43963" lon="5.86024">
        <ele>351.98</ele>
        <time>2019-03-10T11:32:51Z</time>
      </trkpt>
      <trkpt lat="43.43962" lon="5.86025">
        <ele>351.98</ele>
        <time>2019-03-10T11:33:22Z</time>
      </trkpt>
      <trkpt lat="43.43962" lon="5.86025">
        <ele>351.98</ele>
        <time>2019-03-10T11:33:53Z</time>
      </trkpt>
      <trkpt lat="43.43962" lon="5.86024">
        <ele>352.46</ele>
        <time>2019-03-10T11:34:23Z</time>
      </trkpt>
      <trkpt lat="43.43964" lon="5.86024">
        <ele>352.46</ele>
        <time>2019-03-10T11:34:51Z</time>
      </trkpt>
      <trkpt lat="43.43962" lon="5.86023">
        <ele>350.54</ele>
        <time>2019-03-10T11:35:16Z</time>
      </trkpt>
      <trkpt lat="43.43961" lon="5.86022">
        <ele>352.46</ele>
        <time>2019-03-10T11:35:43Z</time>
      </trkpt>
      <trkpt lat="43.43961" lon="5.86021">
        <ele>352.46</ele>
        <time>2019-03-10T11:36:01Z</time>
      </trkpt>
      <trkpt lat="43.43961" lon="5.86021">
        <ele>352.94</ele>
        <time>2019-03-10T11:36:09Z</time>
      </trkpt>
      <trkpt lat="43.43961" lon="5.86021">
        <ele>351.5</ele>
        <time>2019-03-10T11:36:17Z</time>
      </trkpt>
      <trkpt lat="43.43961" lon="5.86021">
        <ele>351.5</ele>
        <time>2019-03-10T11:36:24Z</time>
      </trkpt>
      <trkpt lat="43.43961" lon="5.86021">
        <ele>351.98</ele>
        <time>2019-03-10T11:36:45Z</time>
      </trkpt>
      <trkpt lat="43.43961" lon="5.86021">
        <ele>351.5</ele>
        <time>2019-03-10T11:37:11Z</time>
      </trkpt>
      <trkpt lat="43.4396" lon="5.86021">
        <ele>352.46</ele>
        <time>2019-03-10T11:37:40Z</time>
      </trkpt>
      <trkpt lat="43.4396" lon="5.86021">
        <ele>351.5</ele>
        <time>2019-03-10T11:37:53Z</time>
      </trkpt>
      <trkpt lat="43.4396" lon="5.86021">
        <ele>352.46</ele>
        <time>2019-03-10T11:38:16Z</time>
      </trkpt>
      <trkpt lat="43.4396" lon="5.8602">
        <ele>351.5</ele>
        <time>2019-03-10T11:38:47Z</time>
      </trkpt>
      <trkpt lat="43.4396" lon="5.86021">
        <ele>352.46</ele>
        <time>2019-03-10T11:39:11Z</time>
      </trkpt>
      <trkpt lat="43.43962" lon="5.86022">
        <ele>352.46</ele>
        <time>2019-03-10T11:39:42Z</time>
      </trkpt>
      <trkpt lat="43.43961" lon="5.86021">
        <ele>352.46</ele>
        <time>2019-03-10T11:40:11Z</time>
      </trkpt>
      <trkpt lat="43.43961" lon="5.86021">
        <ele>351.5</ele>
        <time>2019-03-10T11:40:17Z</time>
      </trkpt>
      <trkpt lat="43.4396" lon="5.8602">
        <ele>351.5</ele>
        <time>2019-03-10T11:40:45Z</time>
      </trkpt>
      <trkpt lat="43.43959" lon="5.8602">
        <ele>351.02</ele>
        <time>2019-03-10T11:41:07Z</time>
      </trkpt>
      <trkpt lat="43.43958" lon="5.86019">
        <ele>351.02</ele>
        <time>2019-03-10T11:41:37Z</time>
      </trkpt>
      <trkpt lat="43.43958" lon="5.86019">
        <ele>351.02</ele>
        <time>2019-03-10T11:41:57Z</time>
      </trkpt>
      <trkpt lat="43.43959" lon="5.86019">
        <ele>351.02</ele>
        <time>2019-03-10T11:42:21Z</time>
      </trkpt>
      <trkpt lat="43.43959" lon="5.86019">
        <ele>352.94</ele>
        <time>2019-03-10T11:42:26Z</time>
      </trkpt>
      <trkpt lat="43.43959" lon="5.86019">
        <ele>351.02</ele>
        <time>2019-03-10T11:42:33Z</time>
      </trkpt>
      <trkpt lat="43.43959" lon="5.8602">
        <ele>350.54</ele>
        <time>2019-03-10T11:43:03Z</time>
      </trkpt>
      <trkpt lat="43.43961" lon="5.86022">
        <ele>350.54</ele>
        <time>2019-03-10T11:43:33Z</time>
      </trkpt>
      <trkpt lat="43.43961" lon="5.86022">
        <ele>350.54</ele>
        <time>2019-03-10T11:43:56Z</time>
      </trkpt>
      <trkpt lat="43.43961" lon="5.86023">
        <ele>350.54</ele>
        <time>2019-03-10T11:44:23Z</time>
      </trkpt>
      <trkpt lat="43.4396" lon="5.86023">
        <ele>351.98</ele>
        <time>2019-03-10T11:44:47Z</time>
      </trkpt>
      <trkpt lat="43.43961" lon="5.86022">
        <ele>351.98</ele>
        <time>2019-03-10T11:45:19Z</time>
      </trkpt>
      <trkpt lat="43.43961" lon="5.86024">
        <ele>351.98</ele>
        <time>2019-03-10T11:45:48Z</time>
      </trkpt>
      <trkpt lat="43.43961" lon="5.86024">
        <ele>352.46</ele>
        <time>2019-03-10T11:46:13Z</time>
      </trkpt>
      <trkpt lat="43.43961" lon="5.86025">
        <ele>351.5</ele>
        <time>2019-03-10T11:46:41Z</time>
      </trkpt>
      <trkpt lat="43.43959" lon="5.86025">
        <ele>351.5</ele>
        <time>2019-03-10T11:47:07Z</time>
      </trkpt>
      <trkpt lat="43.4396" lon="5.86025">
        <ele>351.5</ele>
        <time>2019-03-10T11:47:30Z</time>
      </trkpt>
      <trkpt lat="43.43962" lon="5.86024">
        <ele>351.5</ele>
        <time>2019-03-10T11:47:57Z</time>
      </trkpt>
      <trkpt lat="43.43962" lon="5.86024">
        <ele>351.98</ele>
        <time>2019-03-10T11:48:23Z</time>
      </trkpt>
      <trkpt lat="43.43961" lon="5.86024">
        <ele>351.98</ele>
        <time>2019-03-10T11:48:45Z</time>
      </trkpt>
      <trkpt lat="43.43961" lon="5.86024">
        <ele>352.94</ele>
        <time>2019-03-10T11:49:11Z</time>
      </trkpt>
      <trkpt lat="43.43963" lon="5.86026">
        <ele>352.94</ele>
        <time>2019-03-10T11:49:43Z</time>
      </trkpt>
      <trkpt lat="43.43962" lon="5.86026">
        <ele>353.9</ele>
        <time>2019-03-10T11:50:09Z</time>
      </trkpt>
      <trkpt lat="43.43961" lon="5.86026">
        <ele>351.98</ele>
        <time>2019-03-10T11:50:21Z</time>
      </trkpt>
      <trkpt lat="43.43961" lon="5.86026">
        <ele>353.42</ele>
        <time>2019-03-10T11:50:52Z</time>
      </trkpt>
      <trkpt lat="43.4396" lon="5.86024">
        <ele>353.42</ele>
        <time>2019-03-10T11:51:18Z</time>
      </trkpt>
      <trkpt lat="43.43959" lon="5.86024">
        <ele>354.38</ele>
        <time>2019-03-10T11:51:51Z</time>
      </trkpt>
      <trkpt lat="43.43959" lon="5.86025">
        <ele>353.9</ele>
        <time>2019-03-10T11:52:24Z</time>
      </trkpt>
      <trkpt lat="43.4396" lon="5.86024">
        <ele>352.94</ele>
        <time>2019-03-10T11:52:53Z</time>
      </trkpt>
      <trkpt lat="43.43958" lon="5.86023">
        <ele>352.94</ele>
        <time>2019-03-10T11:53:30Z</time>
      </trkpt>
      <trkpt lat="43.43959" lon="5.86022">
        <ele>353.9</ele>
        <time>2019-03-10T11:53:51Z</time>
      </trkpt>
      <trkpt lat="43.43959" lon="5.86023">
        <ele>353.9</ele>
        <time>2019-03-10T11:54:25Z</time>
      </trkpt>
      <trkpt lat="43.43958" lon="5.86022">
        <ele>353.9</ele>
        <time>2019-03-10T11:54:59Z</time>
      </trkpt>
      <trkpt lat="43.43959" lon="5.86022">
        <ele>353.9</ele>
        <time>2019-03-10T11:55:34Z</time>
      </trkpt>
      <trkpt lat="43.4396" lon="5.86022">
        <ele>353.9</ele>
        <time>2019-03-10T11:56:08Z</time>
      </trkpt>
      <trkpt lat="43.43961" lon="5.86021">
        <ele>353.9</ele>
        <time>2019-03-10T11:56:41Z</time>
      </trkpt>
      <trkpt lat="43.43963" lon="5.8602">
        <ele>353.9</ele>
        <time>2019-03-10T11:57:08Z</time>
      </trkpt>
      <trkpt lat="43.43964" lon="5.86021">
        <ele>353.9</ele>
        <time>2019-03-10T11:57:43Z</time>
      </trkpt>
      <trkpt lat="43.43965" lon="5.86023">
        <ele>353.9</ele>
        <time>2019-03-10T11:58:17Z</time>
      </trkpt>
      <trkpt lat="43.43965" lon="5.86022">
        <ele>353.9</ele>
        <time>2019-03-10T11:58:58Z</time>
      </trkpt>
      <trkpt lat="43.43963" lon="5.86024">
        <ele>353.9</ele>
        <time>2019-03-10T11:59:37Z</time>
      </trkpt>
      <trkpt lat="43.43962" lon="5.86021">
        <ele>353.9</ele>
        <time>2019-03-10T12:00:19Z</time>
      </trkpt>
      <trkpt lat="43.43962" lon="5.86022">
        <ele>354.86</ele>
        <time>2019-03-10T12:00:53Z</time>
      </trkpt>
      <trkpt lat="43.43961" lon="5.86022">
        <ele>353.42</ele>
        <time>2019-03-10T12:01:07Z</time>
      </trkpt>
      <trkpt lat="43.43963" lon="5.86022">
        <ele>354.38</ele>
        <time>2019-03-10T12:01:44Z</time>
      </trkpt>
      <trkpt lat="43.43964" lon="5.86023">
        <ele>353.42</ele>
        <time>2019-03-10T12:01:48Z</time>
      </trkpt>
      <trkpt lat="43.43963" lon="5.86022">
        <ele>354.38</ele>
        <time>2019-03-10T12:02:26Z</time>
      </trkpt>
      <trkpt lat="43.43963" lon="5.86022">
        <ele>354.38</ele>
        <time>2019-03-10T12:03:00Z</time>
      </trkpt>
      <trkpt lat="43.43962" lon="5.86021">
        <ele>354.38</ele>
        <time>2019-03-10T12:03:33Z</time>
      </trkpt>
      <trkpt lat="43.43962" lon="5.86021">
        <ele>354.38</ele>
        <time>2019-03-10T12:04:11Z</time>
      </trkpt>
      <trkpt lat="43.43963" lon="5.8602">
        <ele>354.38</ele>
        <time>2019-03-10T12:04:48Z</time>
      </trkpt>
      <trkpt lat="43.43965" lon="5.86019">
        <ele>354.38</ele>
        <time>2019-03-10T12:05:29Z</time>
      </trkpt>
      <trkpt lat="43.43965" lon="5.86021">
        <ele>354.38</ele>
        <time>2019-03-10T12:05:58Z</time>
      </trkpt>
      <trkpt lat="43.43966" lon="5.86019">
        <ele>354.86</ele>
        <time>2019-03-10T12:06:30Z</time>
      </trkpt>
      <trkpt lat="43.43966" lon="5.86019">
        <ele>353.9</ele>
        <time>2019-03-10T12:06:37Z</time>
      </trkpt>
      <trkpt lat="43.43965" lon="5.8602">
        <ele>354.86</ele>
        <time>2019-03-10T12:07:14Z</time>
      </trkpt>
      <trkpt lat="43.43965" lon="5.8602">
        <ele>355.83</ele>
        <time>2019-03-10T12:07:23Z</time>
      </trkpt>
      <trkpt lat="43.43964" lon="5.86021">
        <ele>355.83</ele>
        <time>2019-03-10T12:07:44Z</time>
      </trkpt>
      <trkpt lat="43.43964" lon="5.86021">
        <ele>355.83</ele>
        <time>2019-03-10T12:08:22Z</time>
      </trkpt>
      <trkpt lat="43.43964" lon="5.86021">
        <ele>354.38</ele>
        <time>2019-03-10T12:08:25Z</time>
      </trkpt>
      <trkpt lat="43.43963" lon="5.8602">
        <ele>354.38</ele>
        <time>2019-03-10T12:09:03Z</time>
      </trkpt>
      <trkpt lat="43.43964" lon="5.86019">
        <ele>354.38</ele>
        <time>2019-03-10T12:09:18Z</time>
      </trkpt>
      <trkpt lat="43.43964" lon="5.86021">
        <ele>353.9</ele>
        <time>2019-03-10T12:09:53Z</time>
      </trkpt>
      <trkpt lat="43.43965" lon="5.86022">
        <ele>353.9</ele>
        <time>2019-03-10T12:10:25Z</time>
      </trkpt>
      <trkpt lat="43.43963" lon="5.86022">
        <ele>355.34</ele>
        <time>2019-03-10T12:11:01Z</time>
      </trkpt>
      <trkpt lat="43.43959" lon="5.86024">
        <ele>353.42</ele>
        <time>2019-03-10T12:11:39Z</time>
      </trkpt>
      <trkpt lat="43.4396" lon="5.86025">
        <ele>353.42</ele>
        <time>2019-03-10T12:12:12Z</time>
      </trkpt>
      <trkpt lat="43.43959" lon="5.86025">
        <ele>354.86</ele>
        <time>2019-03-10T12:12:42Z</time>
      </trkpt>
      <trkpt lat="43.43959" lon="5.86025">
        <ele>354.38</ele>
        <time>2019-03-10T12:12:43Z</time>
      </trkpt>
      <trkpt lat="43.43961" lon="5.86024">
        <ele>354.38</ele>
        <time>2019-03-10T12:13:16Z</time>
      </trkpt>
      <trkpt lat="43.43961" lon="5.86024">
        <ele>354.38</ele>
        <time>2019-03-10T12:13:53Z</time>
      </trkpt>
      <trkpt lat="43.43961" lon="5.86025">
        <ele>354.38</ele>
        <time>2019-03-10T12:14:27Z</time>
      </trkpt>
      <trkpt lat="43.43961" lon="5.86024">
        <ele>354.86</ele>
        <time>2019-03-10T12:14:57Z</time>
      </trkpt>
      <trkpt lat="43.43961" lon="5.86022">
        <ele>354.86</ele>
        <time>2019-03-10T12:15:22Z</time>
      </trkpt>
      <trkpt lat="43.43962" lon="5.86023">
        <ele>353.42</ele>
        <time>2019-03-10T12:15:47Z</time>
      </trkpt>
      <trkpt lat="43.43962" lon="5.86023">
        <ele>353.42</ele>
        <time>2019-03-10T12:16:20Z</time>
      </trkpt>
      <trkpt lat="43.43962" lon="5.86023">
        <ele>353.42</ele>
        <time>2019-03-10T12:16:47Z</time>
      </trkpt>
      <trkpt lat="43.43961" lon="5.86023">
        <ele>353.42</ele>
        <time>2019-03-10T12:17:15Z</time>
      </trkpt>
      <trkpt lat="43.43961" lon="5.86024">
        <ele>354.38</ele>
        <time>2019-03-10T12:17:29Z</time>
      </trkpt>
      <trkpt lat="43.43961" lon="5.86024">
        <ele>354.38</ele>
        <time>2019-03-10T12:18:02Z</time>
      </trkpt>
      <trkpt lat="43.43962" lon="5.86024">
        <ele>354.38</ele>
        <time>2019-03-10T12:18:03Z</time>
      </trkpt>
      <trkpt lat="43.43961" lon="5.86024">
        <ele>354.86</ele>
        <time>2019-03-10T12:18:40Z</time>
      </trkpt>
      <trkpt lat="43.43961" lon="5.86024">
        <ele>353.42</ele>
        <time>2019-03-10T12:18:42Z</time>
      </trkpt>
      <trkpt lat="43.4396" lon="5.86022">
        <ele>352.46</ele>
        <time>2019-03-10T12:19:13Z</time>
      </trkpt>
      <trkpt lat="43.43961" lon="5.86023">
        <ele>352.46</ele>
        <time>2019-03-10T12:19:42Z</time>
      </trkpt>
      <trkpt lat="43.4396" lon="5.86024">
        <ele>353.42</ele>
        <time>2019-03-10T12:20:15Z</time>
      </trkpt>
      <trkpt lat="43.4396" lon="5.86024">
        <ele>353.9</ele>
        <time>2019-03-10T12:20:46Z</time>
      </trkpt>
      <trkpt lat="43.4396" lon="5.86024">
        <ele>353.9</ele>
        <time>2019-03-10T12:21:18Z</time>
      </trkpt>
      <trkpt lat="43.43959" lon="5.86024">
        <ele>352.94</ele>
        <time>2019-03-10T12:21:35Z</time>
      </trkpt>
      <trkpt lat="43.43958" lon="5.86026">
        <ele>352.46</ele>
        <time>2019-03-10T12:22:06Z</time>
      </trkpt>
      <trkpt lat="43.43959" lon="5.86026">
        <ele>352.46</ele>
        <time>2019-03-10T12:22:35Z</time>
      </trkpt>
      <trkpt lat="43.43961" lon="5.86024">
        <ele>352.94</ele>
        <time>2019-03-10T12:23:16Z</time>
      </trkpt>
      <trkpt lat="43.43962" lon="5.86024">
        <ele>353.42</ele>
        <time>2019-03-10T12:23:36Z</time>
      </trkpt>
      <trkpt lat="43.43963" lon="5.86024">
        <ele>353.9</ele>
        <time>2019-03-10T12:23:58Z</time>
      </trkpt>
      <trkpt lat="43.43963" lon="5.86024">
        <ele>353.9</ele>
        <time>2019-03-10T12:24:40Z</time>
      </trkpt>
      <trkpt lat="43.43963" lon="5.86024">
        <ele>353.9</ele>
        <time>2019-03-10T12:25:16Z</time>
      </trkpt>
      <trkpt lat="43.43963" lon="5.86024">
        <ele>354.38</ele>
        <time>2019-03-10T12:25:46Z</time>
      </trkpt>
      <trkpt lat="43.43964" lon="5.86023">
        <ele>353.42</ele>
        <time>2019-03-10T12:26:21Z</time>
      </trkpt>
      <trkpt lat="43.43964" lon="5.86022">
        <ele>354.38</ele>
        <time>2019-03-10T12:26:32Z</time>
      </trkpt>
      <trkpt lat="43.43963" lon="5.86023">
        <ele>353.42</ele>
        <time>2019-03-10T12:27:04Z</time>
      </trkpt>
      <trkpt lat="43.43962" lon="5.86022">
        <ele>352.94</ele>
        <time>2019-03-10T12:27:43Z</time>
      </trkpt>
      <trkpt lat="43.43963" lon="5.86023">
        <ele>352.94</ele>
        <time>2019-03-10T12:28:17Z</time>
      </trkpt>
      <trkpt lat="43.43963" lon="5.86022">
        <ele>354.38</ele>
        <time>2019-03-10T12:28:47Z</time>
      </trkpt>
      <trkpt lat="43.43964" lon="5.86022">
        <ele>354.38</ele>
        <time>2019-03-10T12:29:31Z</time>
      </trkpt>
      <trkpt lat="43.43963" lon="5.86023">
        <ele>354.38</ele>
        <time>2019-03-10T12:30:10Z</time>
      </trkpt>
      <trkpt lat="43.43963" lon="5.86023">
        <ele>353.42</ele>
        <time>2019-03-10T12:30:25Z</time>
      </trkpt>
      <trkpt lat="43.43963" lon="5.86023">
        <ele>354.86</ele>
        <time>2019-03-10T12:30:31Z</time>
      </trkpt>
      <trkpt lat="43.43963" lon="5.86022">
        <ele>355.34</ele>
        <time>2019-03-10T12:31:04Z</time>
      </trkpt>
      <trkpt lat="43.43963" lon="5.86023">
        <ele>354.38</ele>
        <time>2019-03-10T12:31:31Z</time>
      </trkpt>
      <trkpt lat="43.43962" lon="5.86024">
        <ele>353.9</ele>
        <time>2019-03-10T12:32:09Z</time>
      </trkpt>
      <trkpt lat="43.43961" lon="5.86024">
        <ele>353.9</ele>
        <time>2019-03-10T12:32:43Z</time>
      </trkpt>
      <trkpt lat="43.43961" lon="5.86025">
        <ele>353.42</ele>
        <time>2019-03-10T12:33:10Z</time>
      </trkpt>
      <trkpt lat="43.43961" lon="5.86024">
        <ele>354.38</ele>
        <time>2019-03-10T12:33:36Z</time>
      </trkpt>
      <trkpt lat="43.4396" lon="5.86024">
        <ele>354.38</ele>
        <time>2019-03-10T12:34:11Z</time>
      </trkpt>
      <trkpt lat="43.43959" lon="5.86023">
        <ele>354.86</ele>
        <time>2019-03-10T12:34:49Z</time>
      </trkpt>
      <trkpt lat="43.4396" lon="5.86024">
        <ele>353.42</ele>
        <time>2019-03-10T12:35:15Z</time>
      </trkpt>
      <trkpt lat="43.43959" lon="5.86025">
        <ele>353.42</ele>
        <time>2019-03-10T12:35:51Z</time>
      </trkpt>
      <trkpt lat="43.4396" lon="5.86026">
        <ele>354.38</ele>
        <time>2019-03-10T12:36:28Z</time>
      </trkpt>
      <trkpt lat="43.43961" lon="5.86026">
        <ele>354.38</ele>
        <time>2019-03-10T12:36:57Z</time>
      </trkpt>
      <trkpt lat="43.43959" lon="5.86026">
        <ele>354.38</ele>
        <time>2019-03-10T12:37:34Z</time>
      </trkpt>
      <trkpt lat="43.43963" lon="5.86025">
        <ele>354.86</ele>
        <time>2019-03-10T12:38:05Z</time>
      </trkpt>
      <trkpt lat="43.43962" lon="5.86021">
        <ele>355.34</ele>
        <time>2019-03-10T12:38:41Z</time>
      </trkpt>
      <trkpt lat="43.43962" lon="5.8602">
        <ele>353.9</ele>
        <time>2019-03-10T12:38:54Z</time>
      </trkpt>
      <trkpt lat="43.43961" lon="5.86021">
        <ele>354.38</ele>
        <time>2019-03-10T12:39:05Z</time>
      </trkpt>
      <trkpt lat="43.43961" lon="5.86018">
        <ele>354.86</ele>
        <time>2019-03-10T12:39:41Z</time>
      </trkpt>
      <trkpt lat="43.4396" lon="5.86016">
        <ele>355.34</ele>
        <time>2019-03-10T12:40:19Z</time>
      </trkpt>
      <trkpt lat="43.4396" lon="5.86015">
        <ele>354.38</ele>
        <time>2019-03-10T12:40:42Z</time>
      </trkpt>
      <trkpt lat="43.43961" lon="5.86015">
        <ele>353.9</ele>
        <time>2019-03-10T12:41:17Z</time>
      </trkpt>
      <trkpt lat="43.43959" lon="5.86015">
        <ele>355.34</ele>
        <time>2019-03-10T12:41:54Z</time>
      </trkpt>
      <trkpt lat="43.43958" lon="5.86014">
        <ele>355.83</ele>
        <time>2019-03-10T12:42:21Z</time>
      </trkpt>
      <trkpt lat="43.43958" lon="5.86013">
        <ele>354.86</ele>
        <time>2019-03-10T12:42:42Z</time>
      </trkpt>
      <trkpt lat="43.43959" lon="5.8601">
        <ele>354.86</ele>
        <time>2019-03-10T12:43:17Z</time>
      </trkpt>
      <trkpt lat="43.43959" lon="5.86016">
        <ele>354.38</ele>
        <time>2019-03-10T12:43:51Z</time>
      </trkpt>
      <trkpt lat="43.4396" lon="5.86017">
        <ele>355.83</ele>
        <time>2019-03-10T12:44:30Z</time>
      </trkpt>
      <trkpt lat="43.43962" lon="5.8602">
        <ele>355.83</ele>
        <time>2019-03-10T12:45:04Z</time>
      </trkpt>
      <trkpt lat="43.4396" lon="5.8602">
        <ele>355.83</ele>
        <time>2019-03-10T12:45:37Z</time>
      </trkpt>
      <trkpt lat="43.4396" lon="5.86023">
        <ele>355.83</ele>
        <time>2019-03-10T12:46:04Z</time>
      </trkpt>
      <trkpt lat="43.4396" lon="5.86023">
        <ele>355.83</ele>
        <time>2019-03-10T12:46:32Z</time>
      </trkpt>
      <trkpt lat="43.43962" lon="5.86024">
        <ele>355.83</ele>
        <time>2019-03-10T12:47:06Z</time>
      </trkpt>
      <trkpt lat="43.43962" lon="5.86023">
        <ele>356.31</ele>
        <time>2019-03-10T12:47:42Z</time>
      </trkpt>
      <trkpt lat="43.43962" lon="5.86023">
        <ele>356.31</ele>
        <time>2019-03-10T12:48:15Z</time>
      </trkpt>
      <trkpt lat="43.43961" lon="5.86022">
        <ele>356.31</ele>
        <time>2019-03-10T12:48:50Z</time>
      </trkpt>
      <trkpt lat="43.43961" lon="5.86023">
        <ele>356.31</ele>
        <time>2019-03-10T12:49:23Z</time>
      </trkpt>
      <trkpt lat="43.43961" lon="5.86025">
        <ele>354.86</ele>
        <time>2019-03-10T12:49:57Z</time>
      </trkpt>
      <trkpt lat="43.4396" lon="5.86026">
        <ele>355.83</ele>
        <time>2019-03-10T12:50:26Z</time>
      </trkpt>
      <trkpt lat="43.43961" lon="5.86027">
        <ele>355.83</ele>
        <time>2019-03-10T12:50:59Z</time>
      </trkpt>
      <trkpt lat="43.43961" lon="5.86025">
        <ele>356.31</ele>
        <time>2019-03-10T12:51:31Z</time>
      </trkpt>
      <trkpt lat="43.4396" lon="5.86025">
        <ele>356.79</ele>
        <time>2019-03-10T12:51:58Z</time>
      </trkpt>
      <trkpt lat="43.43961" lon="5.86025">
        <ele>356.31</ele>
        <time>2019-03-10T12:52:28Z</time>
      </trkpt>
      <trkpt lat="43.4396" lon="5.86024">
        <ele>355.34</ele>
        <time>2019-03-10T12:53:02Z</time>
      </trkpt>
      <trkpt lat="43.43961" lon="5.86024">
        <ele>355.34</ele>
        <time>2019-03-10T12:53:37Z</time>
      </trkpt>
      <trkpt lat="43.43963" lon="5.86021">
        <ele>356.31</ele>
        <time>2019-03-10T12:54:07Z</time>
      </trkpt>
      <trkpt lat="43.4396" lon="5.86022">
        <ele>356.31</ele>
        <time>2019-03-10T12:54:34Z</time>
      </trkpt>
      <trkpt lat="43.43959" lon="5.86023">
        <ele>355.83</ele>
        <time>2019-03-10T12:55:04Z</time>
      </trkpt>
      <trkpt lat="43.43959" lon="5.86022">
        <ele>355.83</ele>
        <time>2019-03-10T12:55:38Z</time>
      </trkpt>
      <trkpt lat="43.43958" lon="5.86023">
        <ele>355.83</ele>
        <time>2019-03-10T12:56:08Z</time>
      </trkpt>
      <trkpt lat="43.43959" lon="5.86023">
        <ele>356.31</ele>
        <time>2019-03-10T12:56:44Z</time>
      </trkpt>
      <trkpt lat="43.43958" lon="5.86022">
        <ele>356.31</ele>
        <time>2019-03-10T12:57:06Z</time>
      </trkpt>
      <trkpt lat="43.43959" lon="5.86022">
        <ele>356.31</ele>
        <time>2019-03-10T12:57:36Z</time>
      </trkpt>
      <trkpt lat="43.43958" lon="5.86024">
        <ele>356.79</ele>
        <time>2019-03-10T12:57:58Z</time>
      </trkpt>
      <trkpt lat="43.4396" lon="5.86022">
        <ele>357.75</ele>
        <time>2019-03-10T12:58:28Z</time>
      </trkpt>
      <trkpt lat="43.43959" lon="5.86023">
        <ele>356.31</ele>
        <time>2019-03-10T12:59:01Z</time>
      </trkpt>
      <trkpt lat="43.43958" lon="5.86021">
        <ele>355.34</ele>
        <time>2019-03-10T12:59:34Z</time>
      </trkpt>
      <trkpt lat="43.43957" lon="5.86022">
        <ele>354.38</ele>
        <time>2019-03-10T13:00:02Z</time>
      </trkpt>
      <trkpt lat="43.43956" lon="5.86023">
        <ele>354.38</ele>
        <time>2019-03-10T13:00:31Z</time>
      </trkpt>
      <trkpt lat="43.43965" lon="5.86018">
        <ele>354.38</ele>
        <time>2019-03-10T13:00:56Z</time>
      </trkpt>
      <trkpt lat="43.43963" lon="5.8602">
        <ele>354.38</ele>
        <time>2019-03-10T13:01:30Z</time>
      </trkpt>
      <trkpt lat="43.4396" lon="5.86021">
        <ele>355.34</ele>
        <time>2019-03-10T13:02:10Z</time>
      </trkpt>
      <trkpt lat="43.43962" lon="5.8602">
        <ele>355.34</ele>
        <time>2019-03-10T13:02:36Z</time>
      </trkpt>
      <trkpt lat="43.4396" lon="5.8602">
        <ele>355.83</ele>
        <time>2019-03-10T13:03:04Z</time>
      </trkpt>
      <trkpt lat="43.4396" lon="5.86021">
        <ele>355.83</ele>
        <time>2019-03-10T13:03:30Z</time>
      </trkpt>
      <trkpt lat="43.4396" lon="5.8602">
        <ele>354.86</ele>
        <time>2019-03-10T13:03:36Z</time>
      </trkpt>
      <trkpt lat="43.4396" lon="5.8602">
        <ele>355.34</ele>
        <time>2019-03-10T13:04:11Z</time>
      </trkpt>
      <trkpt lat="43.43961" lon="5.8602">
        <ele>355.34</ele>
        <time>2019-03-10T13:04:36Z</time>
      </trkpt>
      <trkpt lat="43.43961" lon="5.86021">
        <ele>355.34</ele>
        <time>2019-03-10T13:05:04Z</time>
      </trkpt>
      <trkpt lat="43.43959" lon="5.86022">
        <ele>354.86</ele>
        <time>2019-03-10T13:05:38Z</time>
      </trkpt>
      <trkpt lat="43.43957" lon="5.86023">
        <ele>354.38</ele>
        <time>2019-03-10T13:06:01Z</time>
      </trkpt>
      <trkpt lat="43.43958" lon="5.86023">
        <ele>353.9</ele>
        <time>2019-03-10T13:06:26Z</time>
      </trkpt>
      <trkpt lat="43.43958" lon="5.86022">
        <ele>354.86</ele>
        <time>2019-03-10T13:06:45Z</time>
      </trkpt>
      <trkpt lat="43.43958" lon="5.86022">
        <ele>354.86</ele>
        <time>2019-03-10T13:07:13Z</time>
      </trkpt>
      <trkpt lat="43.43959" lon="5.86021">
        <ele>353.9</ele>
        <time>2019-03-10T13:07:51Z</time>
      </trkpt>
      <trkpt lat="43.43959" lon="5.8602">
        <ele>354.38</ele>
        <time>2019-03-10T13:08:18Z</time>
      </trkpt>
      <trkpt lat="43.43958" lon="5.8602">
        <ele>354.38</ele>
        <time>2019-03-10T13:08:53Z</time>
      </trkpt>
      <trkpt lat="43.43958" lon="5.86021">
        <ele>354.38</ele>
        <time>2019-03-10T13:09:26Z</time>
      </trkpt>
      <trkpt lat="43.43958" lon="5.86022">
        <ele>354.38</ele>
        <time>2019-03-10T13:09:57Z</time>
      </trkpt>
      <trkpt lat="43.43959" lon="5.86022">
        <ele>353.9</ele>
        <time>2019-03-10T13:10:26Z</time>
      </trkpt>
      <trkpt lat="43.43959" lon="5.86022">
        <ele>353.9</ele>
        <time>2019-03-10T13:10:54Z</time>
      </trkpt>
      <trkpt lat="43.4396" lon="5.86021">
        <ele>352.94</ele>
        <time>2019-03-10T13:11:26Z</time>
      </trkpt>
      <trkpt lat="43.4396" lon="5.86021">
        <ele>352.94</ele>
        <time>2019-03-10T13:11:27Z</time>
      </trkpt>
      <trkpt lat="43.43961" lon="5.86021">
        <ele>353.9</ele>
        <time>2019-03-10T13:11:50Z</time>
      </trkpt>
      <trkpt lat="43.43961" lon="5.8602">
        <ele>354.38</ele>
        <time>2019-03-10T13:12:21Z</time>
      </trkpt>
      <trkpt lat="43.43961" lon="5.86021">
        <ele>352.94</ele>
        <time>2019-03-10T13:12:28Z</time>
      </trkpt>
      <trkpt lat="43.43961" lon="5.8602">
        <ele>354.38</ele>
        <time>2019-03-10T13:12:33Z</time>
      </trkpt>
      <trkpt lat="43.43962" lon="5.8602">
        <ele>352.94</ele>
        <time>2019-03-10T13:13:02Z</time>
      </trkpt>
      <trkpt lat="43.43962" lon="5.86021">
        <ele>354.38</ele>
        <time>2019-03-10T13:13:28Z</time>
      </trkpt>
      <trkpt lat="43.43963" lon="5.86021">
        <ele>354.38</ele>
        <time>2019-03-10T13:13:54Z</time>
      </trkpt>
      <trkpt lat="43.43962" lon="5.86021">
        <ele>352.94</ele>
        <time>2019-03-10T13:14:20Z</time>
      </trkpt>
      <trkpt lat="43.43962" lon="5.86022">
        <ele>352.94</ele>
        <time>2019-03-10T13:14:52Z</time>
      </trkpt>
      <trkpt lat="43.43964" lon="5.86021">
        <ele>352.94</ele>
        <time>2019-03-10T13:15:32Z</time>
      </trkpt>
      <trkpt lat="43.43963" lon="5.86021">
        <ele>353.9</ele>
        <time>2019-03-10T13:15:47Z</time>
      </trkpt>
      <trkpt lat="43.43963" lon="5.8602">
        <ele>351.98</ele>
        <time>2019-03-10T13:15:54Z</time>
      </trkpt>
      <trkpt lat="43.43962" lon="5.86019">
        <ele>352.94</ele>
        <time>2019-03-10T13:16:29Z</time>
      </trkpt>
      <trkpt lat="43.43962" lon="5.8602">
        <ele>353.42</ele>
        <time>2019-03-10T13:16:48Z</time>
      </trkpt>
      <trkpt lat="43.43961" lon="5.86021">
        <ele>351.98</ele>
        <time>2019-03-10T13:17:06Z</time>
      </trkpt>
      <trkpt lat="43.43961" lon="5.86019">
        <ele>352.94</ele>
        <time>2019-03-10T13:17:44Z</time>
      </trkpt>
      <trkpt lat="43.43961" lon="5.86016">
        <ele>353.42</ele>
        <time>2019-03-10T13:18:18Z</time>
      </trkpt>
      <trkpt lat="43.43958" lon="5.86018">
        <ele>353.42</ele>
        <time>2019-03-10T13:18:47Z</time>
      </trkpt>
      <trkpt lat="43.43959" lon="5.86017">
        <ele>351.98</ele>
        <time>2019-03-10T13:19:07Z</time>
      </trkpt>
      <trkpt lat="43.43959" lon="5.86019">
        <ele>353.42</ele>
        <time>2019-03-10T13:19:44Z</time>
      </trkpt>
      <trkpt lat="43.43959" lon="5.86019">
        <ele>351.98</ele>
        <time>2019-03-10T13:20:08Z</time>
      </trkpt>
      <trkpt lat="43.4396" lon="5.86019">
        <ele>353.42</ele>
        <time>2019-03-10T13:20:29Z</time>
      </trkpt>
      <trkpt lat="43.43958" lon="5.86018">
        <ele>352.94</ele>
        <time>2019-03-10T13:20:58Z</time>
      </trkpt>
      <trkpt lat="43.43957" lon="5.86018">
        <ele>352.46</ele>
        <time>2019-03-10T13:21:37Z</time>
      </trkpt>
      <trkpt lat="43.43956" lon="5.86017">
        <ele>351.98</ele>
        <time>2019-03-10T13:22:14Z</time>
      </trkpt>
      <trkpt lat="43.43957" lon="5.86017">
        <ele>353.42</ele>
        <time>2019-03-10T13:22:43Z</time>
      </trkpt>
      <trkpt lat="43.43957" lon="5.86017">
        <ele>352.46</ele>
        <time>2019-03-10T13:22:47Z</time>
      </trkpt>
      <trkpt lat="43.43958" lon="5.86017">
        <ele>352.46</ele>
        <time>2019-03-10T13:23:10Z</time>
      </trkpt>
      <trkpt lat="43.43959" lon="5.86018">
        <ele>353.42</ele>
        <time>2019-03-10T13:23:24Z</time>
      </trkpt>
      <trkpt lat="43.4396" lon="5.86019">
        <ele>353.9</ele>
        <time>2019-03-10T13:23:43Z</time>
      </trkpt>
    </trkseg>
  </trk>
</gpx>